Private Wetterstation Sandau
Wetterdaten: Donnerstag, 20.12.2012
Datum Zeit Temp. A. Feuchte A. Luftdruck Regen Wind Richtung Richtung Taupunkt Windchill
20.12.2012 00:01 1,5 C 95 % 1027,3 hPa 0,0 l/m 0,0 km/h (0 Bft) O-SO 112 0,8 C 1,5 C
20.12.2012 00:06 1,5 C 95 % 1027,2 hPa 0,0 l/m 6,5 km/h (2 Bft) O-NO 67 0,8 C -0,5 C
20.12.2012 00:11 1,4 C 95 % 1027,1 hPa 0,0 l/m 7,6 km/h (2 Bft) O-SO 112 0,7 C -1,0 C
20.12.2012 00:16 1,4 C 95 % 1027,3 hPa 0,0 l/m 3,6 km/h (1 Bft) O-NO 67 0,7 C 1,4 C
20.12.2012 00:21 1,4 C 95 % 1027,3 hPa 0,0 l/m 5,0 km/h (1 Bft) O-SO 112 0,7 C -0,0 C
20.12.2012 00:26 1,4 C 95 % 1027,3 hPa 0,0 l/m 3,6 km/h (1 Bft) O-NO 67 0,7 C 1,4 C
20.12.2012 00:31 1,4 C 95 % 1027,4 hPa 0,0 l/m 7,9 km/h (2 Bft) SO 135 0,7 C -1,1 C
20.12.2012 00:36 1,4 C 95 % 1027,5 hPa 0,0 l/m 3,2 km/h (1 Bft) SO 135 0,7 C 1,4 C
20.12.2012 00:41 1,4 C 95 % 1027,4 hPa 0,0 l/m 6,1 km/h (2 Bft) O-NO 67 0,7 C -0,5 C
20.12.2012 00:46 1,4 C 95 % 1027,4 hPa 0,0 l/m 6,5 km/h (2 Bft) O-SO 112 0,7 C -0,6 C
20.12.2012 00:51 1,4 C 95 % 1027,4 hPa 0,0 l/m 5,0 km/h (1 Bft) O-SO 112 0,7 C -0,0 C
20.12.2012 00:56 1,4 C 95 % 1027,3 hPa 0,0 l/m 8,3 km/h (2 Bft) O-SO 112 0,7 C -1,2 C
20.12.2012 01:01 1,4 C 95 % 1027,5 hPa 0,0 l/m 4,7 km/h (1 Bft) O-SO 112 0,7 C 0,1 C
20.12.2012 01:06 1,4 C 95 % 1027,6 hPa 0,0 l/m 4,7 km/h (1 Bft) O-SO 112 0,7 C 0,1 C
20.12.2012 01:11 1,4 C 95 % 1027,5 hPa 0,0 l/m 3,6 km/h (1 Bft) SO 135 0,7 C 1,4 C
20.12.2012 01:16 1,3 C 95 % 1027,4 hPa 0,0 l/m 7,2 km/h (2 Bft) O 90 0,6 C -1,0 C
20.12.2012 01:21 1,3 C 95 % 1027,4 hPa 0,0 l/m 3,2 km/h (1 Bft) O-SO 112 0,6 C 1,3 C
20.12.2012 01:26 1,4 C 95 % 1027,4 hPa 0,0 l/m 4,7 km/h (1 Bft) O-SO 112 0,7 C 0,1 C
20.12.2012 01:31 1,4 C 94 % 1027,3 hPa 0,0 l/m 8,3 km/h (2 Bft) O 90 0,5 C -1,2 C
20.12.2012 01:36 1,3 C 94 % 1027,3 hPa 0,0 l/m 4,0 km/h (1 Bft) O-NO 67 0,4 C 1,3 C
20.12.2012 01:41 1,3 C 94 % 1027,3 hPa 0,0 l/m 2,5 km/h (1 Bft) O-SO 112 0,4 C 1,3 C
20.12.2012 01:46 1,3 C 94 % 1027,4 hPa 0,0 l/m 5,0 km/h (1 Bft) SO 135 0,4 C -0,1 C
20.12.2012 01:51 1,3 C 94 % 1027,3 hPa 0,0 l/m 5,0 km/h (1 Bft) O 90 0,4 C -0,1 C
20.12.2012 01:56 1,3 C 94 % 1027,4 hPa 0,0 l/m 2,9 km/h (1 Bft) O-SO 112 0,4 C 1,3 C
20.12.2012 02:01 1,3 C 94 % 1027,3 hPa 0,0 l/m 6,5 km/h (2 Bft) O 90 0,4 C -0,7 C
20.12.2012 02:06 1,3 C 94 % 1027,3 hPa 0,0 l/m 3,2 km/h (1 Bft) O-SO 112 0,4 C 1,3 C
20.12.2012 02:11 1,3 C 94 % 1027,3 hPa 0,0 l/m 3,2 km/h (1 Bft) O-SO 112 0,4 C 1,3 C
20.12.2012 02:16 1,3 C 94 % 1027,2 hPa 0,0 l/m 9,4 km/h (2 Bft) O-SO 112 0,4 C -1,6 C
20.12.2012 02:21 1,3 C 94 % 1027,3 hPa 0,0 l/m 10,1 km/h (2 Bft) O-SO 112 0,4 C -1,8 C
20.12.2012 02:26 1,3 C 94 % 1027,2 hPa 0,0 l/m 2,9 km/h (1 Bft) SO 135 0,4 C 1,3 C
20.12.2012 02:31 1,3 C 94 % 1027,2 hPa 0,0 l/m 0,0 km/h (0 Bft) O-SO 112 0,4 C 1,3 C
20.12.2012 02:36 1,3 C 94 % 1027,3 hPa 0,0 l/m 10,4 km/h (2 Bft) O-SO 112 0,4 C -1,9 C
20.12.2012 02:41 1,3 C 94 % 1027,2 hPa 0,0 l/m 5,8 km/h (2 Bft) O-NO 67 0,4 C -0,5 C
20.12.2012 02:46 1,3 C 94 % 1027,2 hPa 0,0 l/m 5,4 km/h (1 Bft) O-SO 112 0,4 C -0,3 C
20.12.2012 02:51 1,3 C 94 % 1027,2 hPa 0,0 l/m 5,0 km/h (1 Bft) SO 135 0,4 C -0,1 C
20.12.2012 02:56 1,3 C 94 % 1027,2 hPa 0,0 l/m 8,6 km/h (2 Bft) O-SO 112 0,4 C -1,4 C
20.12.2012 03:01 1,3 C 94 % 1027,0 hPa 0,0 l/m 5,0 km/h (1 Bft) O-SO 112 0,4 C -0,1 C
20.12.2012 03:06 1,3 C 94 % 1026,9 hPa 0,0 l/m 5,4 km/h (1 Bft) SO 135 0,4 C -0,3 C
20.12.2012 03:11 1,3 C 94 % 1026,7 hPa 0,0 l/m 3,6 km/h (1 Bft) S-SO 157 0,4 C 1,3 C
20.12.2012 03:16 1,3 C 94 % 1026,6 hPa 0,0 l/m 6,5 km/h (2 Bft) SO 135 0,4 C -0,7 C
20.12.2012 03:21 1,3 C 94 % 1026,7 hPa 0,0 l/m 3,6 km/h (1 Bft) SO 135 0,4 C 1,3 C
20.12.2012 03:26 1,3 C 94 % 1026,6 hPa 0,0 l/m 10,4 km/h (2 Bft) SO 135 0,4 C -1,9 C
20.12.2012 03:31 1,3 C 94 % 1026,7 hPa 0,0 l/m 9,7 km/h (2 Bft) O 90 0,4 C -1,7 C
20.12.2012 03:36 1,3 C 94 % 1026,6 hPa 0,0 l/m 14,8 km/h (3 Bft) O-SO 112 0,4 C -2,8 C
20.12.2012 03:41 1,3 C 94 % 1026,7 hPa 0,0 l/m 5,8 km/h (2 Bft) SO 135 0,4 C -0,5 C
20.12.2012 03:46 1,3 C 94 % 1026,5 hPa 0,0 l/m 3,2 km/h (1 Bft) O-SO 112 0,4 C 1,3 C
20.12.2012 03:51 1,3 C 94 % 1026,5 hPa 0,0 l/m 10,1 km/h (2 Bft) O-SO 112 0,4 C -1,8 C
20.12.2012 03:56 1,3 C 94 % 1026,5 hPa 0,0 l/m 6,8 km/h (2 Bft) O-SO 112 0,4 C -0,8 C
20.12.2012 04:01 1,3 C 95 % 1026,4 hPa 0,0 l/m 10,1 km/h (2 Bft) O-SO 112 0,6 C -1,8 C
20.12.2012 04:06 1,3 C 95 % 1026,3 hPa 0,0 l/m 7,2 km/h (2 Bft) O-SO 112 0,6 C -1,0 C
20.12.2012 04:11 1,3 C 95 % 1026,3 hPa 0,0 l/m 13,3 km/h (3 Bft) O 90 0,6 C -2,5 C
20.12.2012 04:16 1,3 C 95 % 1026,1 hPa 0,0 l/m 5,8 km/h (2 Bft) O 90 0,6 C -0,5 C
20.12.2012 04:21 1,3 C 95 % 1026,0 hPa 0,0 l/m 2,9 km/h (1 Bft) O-NO 67 0,6 C 1,3 C
20.12.2012 04:26 1,3 C 95 % 1025,9 hPa 0,0 l/m 8,6 km/h (2 Bft) O-SO 112 0,6 C -1,4 C
20.12.2012 04:31 1,3 C 95 % 1026,0 hPa 0,0 l/m 3,2 km/h (1 Bft) O-SO 112 0,6 C 1,3 C
20.12.2012 04:36 1,2 C 95 % 1026,0 hPa 0,0 l/m 6,8 km/h (2 Bft) SO 135 0,5 C -0,9 C
20.12.2012 04:41 1,2 C 95 % 1026,0 hPa 0,0 l/m 6,5 km/h (2 Bft) O-NO 67 0,5 C -0,8 C
20.12.2012 04:46 1,2 C 95 % 1026,1 hPa 0,0 l/m 7,9 km/h (2 Bft) O-SO 112 0,5 C -1,3 C
20.12.2012 04:51 1,2 C 95 % 1025,9 hPa 0,0 l/m 6,1 km/h (2 Bft) O 90 0,5 C -0,7 C
20.12.2012 04:56 1,2 C 95 % 1025,8 hPa 0,0 l/m 4,7 km/h (1 Bft) O-NO 67 0,5 C -0,1 C
20.12.2012 05:01 1,2 C 95 % 1025,8 hPa 0,0 l/m 6,5 km/h (2 Bft) SO 135 0,5 C -0,8 C
20.12.2012 05:06 1,2 C 95 % 1025,8 hPa 0,0 l/m 5,8 km/h (2 Bft) O-SO 112 0,5 C -0,6 C
20.12.2012 05:11 1,2 C 95 % 1025,6 hPa 0,0 l/m 6,5 km/h (2 Bft) O-SO 112 0,5 C -0,8 C
20.12.2012 05:16 1,2 C 95 % 1025,8 hPa 0,0 l/m 4,7 km/h (1 Bft) SO 135 0,5 C -0,1 C
20.12.2012 05:21 1,2 C 95 % 1025,8 hPa 0,0 l/m 3,2 km/h (1 Bft) SO 135 0,5 C 1,2 C
20.12.2012 05:26 1,3 C 95 % 1025,9 hPa 0,0 l/m 6,1 km/h (2 Bft) SO 135 0,6 C -0,6 C
20.12.2012 05:31 1,3 C 95 % 1025,9 hPa 0,0 l/m 9,4 km/h (2 Bft) S-SO 157 0,6 C -1,6 C
20.12.2012 05:36 1,3 C 95 % 1025,7 hPa 0,0 l/m 5,4 km/h (1 Bft) O 90 0,6 C -0,3 C
20.12.2012 05:41 1,3 C 95 % 1025,8 hPa 0,0 l/m 4,3 km/h (1 Bft) S-SO 157 0,6 C 1,3 C
20.12.2012 05:46 1,3 C 95 % 1025,7 hPa 0,0 l/m 5,8 km/h (2 Bft) SO 135 0,6 C -0,5 C
20.12.2012 05:51 1,3 C 95 % 1025,7 hPa 0,0 l/m 5,0 km/h (1 Bft) SO 135 0,6 C -0,1 C
20.12.2012 05:56 1,3 C 95 % 1025,8 hPa 0,0 l/m 3,2 km/h (1 Bft) SO 135 0,6 C 1,3 C
20.12.2012 06:01 1,3 C 95 % 1025,9 hPa 0,0 l/m 4,3 km/h (1 Bft) O-SO 112 0,6 C 1,3 C
20.12.2012 06:06 1,3 C 95 % 1025,8 hPa 0,0 l/m 7,9 km/h (2 Bft) S-SO 157 0,6 C -1,2 C
20.12.2012 06:11 1,3 C 95 % 1025,7 hPa 0,0 l/m 5,0 km/h (1 Bft) O-SO 112 0,6 C -0,1 C
20.12.2012 06:16 1,3 C 95 % 1025,7 hPa 0,0 l/m 0,0 km/h (0 Bft) O-SO 112 0,6 C 1,3 C
20.12.2012 06:21 1,3 C 95 % 1025,7 hPa 0,0 l/m 0,0 km/h (0 Bft) O-SO 112 0,6 C 1,3 C
20.12.2012 06:26 1,3 C 95 % 1025,8 hPa 0,0 l/m 6,1 km/h (2 Bft) O 90 0,6 C -0,6 C
20.12.2012 06:31 1,3 C 95 % 1025,8 hPa 0,0 l/m 10,4 km/h (2 Bft) O-NO 67 0,6 C -1,9 C
20.12.2012 06:36 1,3 C 95 % 1025,7 hPa 0,0 l/m 5,8 km/h (2 Bft) SO 135 0,6 C -0,5 C
20.12.2012 06:41 1,3 C 95 % 1025,8 hPa 0,0 l/m 6,1 km/h (2 Bft) O-SO 112 0,6 C -0,6 C
20.12.2012 06:46 1,3 C 95 % 1025,7 hPa 0,0 l/m 10,1 km/h (2 Bft) SO 135 0,6 C -1,8 C
20.12.2012 06:51 1,3 C 95 % 1025,7 hPa 0,0 l/m 6,1 km/h (2 Bft) O-SO 112 0,6 C -0,6 C
20.12.2012 06:56 1,3 C 95 % 1025,6 hPa 0,0 l/m 5,8 km/h (2 Bft) O-SO 112 0,6 C -0,5 C
20.12.2012 07:01 1,3 C 95 % 1025,6 hPa 0,0 l/m 4,3 km/h (1 Bft) O-SO 112 0,6 C 1,3 C
20.12.2012 07:06 1,3 C 95 % 1025,5 hPa 0,0 l/m 9,0 km/h (2 Bft) O-NO 67 0,6 C -1,5 C
20.12.2012 07:11 1,2 C 95 % 1025,6 hPa 0,0 l/m 0,0 km/h (0 Bft) O-SO 112 0,5 C 1,2 C
20.12.2012 07:16 1,3 C 95 % 1025,6 hPa 0,0 l/m 5,0 km/h (1 Bft) O-SO 112 0,6 C -0,1 C
20.12.2012 07:21 1,2 C 95 % 1025,6 hPa 0,0 l/m 4,0 km/h (1 Bft) O-SO 112 0,5 C 1,2 C
20.12.2012 07:26 1,3 C 95 % 1025,4 hPa 0,0 l/m 12,6 km/h (3 Bft) O-SO 112 0,6 C -2,4 C
20.12.2012 07:31 1,2 C 95 % 1025,4 hPa 0,0 l/m 7,6 km/h (2 Bft) SO 135 0,5 C -1,2 C
20.12.2012 07:36 1,2 C 95 % 1025,4 hPa 0,0 l/m 3,2 km/h (1 Bft) O-SO 112 0,5 C 1,2 C
20.12.2012 07:41 1,2 C 95 % 1025,2 hPa 0,0 l/m 6,1 km/h (2 Bft) O 90 0,5 C -0,7 C
20.12.2012 07:46 1,2 C 95 % 1025,3 hPa 0,0 l/m 7,6 km/h (2 Bft) O-NO 67 0,5 C -1,2 C
20.12.2012 07:51 1,2 C 95 % 1025,3 hPa 0,0 l/m 9,7 km/h (2 Bft) O-SO 112 0,5 C -1,8 C
20.12.2012 07:56 1,2 C 95 % 1025,2 hPa 0,0 l/m 4,0 km/h (1 Bft) O-NO 67 0,5 C 1,2 C
20.12.2012 08:01 1,1 C 95 % 1025,2 hPa 0,0 l/m 16,9 km/h (3 Bft) O 90 0,4 C -3,4 C
20.12.2012 08:06 1,2 C 95 % 1025,1 hPa 0,0 l/m 15,8 km/h (3 Bft) SO 135 0,5 C -3,1 C
20.12.2012 08:11 1,2 C 95 % 1025,1 hPa 0,0 l/m 10,1 km/h (2 Bft) O-SO 112 0,5 C -1,9 C
20.12.2012 08:16 1,2 C 95 % 1025,3 hPa 0,0 l/m 5,8 km/h (2 Bft) O-SO 112 0,5 C -0,6 C
20.12.2012 08:21 1,1 C 95 % 1025,1 hPa 0,0 l/m 4,0 km/h (1 Bft) O-SO 112 0,4 C 1,1 C
20.12.2012 08:26 1,2 C 95 % 1025,3 hPa 0,0 l/m 11,5 km/h (2 Bft) SO 135 0,5 C -2,2 C
20.12.2012 08:31 1,2 C 95 % 1025,2 hPa 0,0 l/m 10,1 km/h (2 Bft) O-SO 112 0,5 C -1,9 C
20.12.2012 08:36 1,2 C 95 % 1025,1 hPa 0,0 l/m 7,6 km/h (2 Bft) O-SO 112 0,5 C -1,2 C
20.12.2012 08:41 1,2 C 95 % 1025,2 hPa 0,0 l/m 7,2 km/h (2 Bft) O-SO 112 0,5 C -1,1 C
20.12.2012 08:46 1,3 C 95 % 1025,0 hPa 0,0 l/m 8,6 km/h (2 Bft) O-SO 112 0,6 C -1,4 C
20.12.2012 08:51 1,3 C 95 % 1025,0 hPa 0,0 l/m 6,5 km/h (2 Bft) O-SO 112 0,6 C -0,7 C
20.12.2012 08:56 1,3 C 95 % 1025,0 hPa 0,0 l/m 5,8 km/h (2 Bft) O-SO 112 0,6 C -0,5 C
20.12.2012 09:01 1,3 C 95 % 1024,8 hPa 0,0 l/m 6,5 km/h (2 Bft) SO 135 0,6 C -0,7 C
20.12.2012 09:06 1,3 C 95 % 1025,0 hPa 0,0 l/m 10,8 km/h (2 Bft) O 90 0,6 C -2,0 C
20.12.2012 09:11 1,3 C 95 % 1024,8 hPa 0,0 l/m 9,0 km/h (2 Bft) SO 135 0,6 C -1,5 C
20.12.2012 09:16 1,3 C 95 % 1024,8 hPa 0,0 l/m 9,0 km/h (2 Bft) SO 135 0,6 C -1,5 C
20.12.2012 09:21 1,3 C 95 % 1024,7 hPa 0,0 l/m 6,1 km/h (2 Bft) O-SO 112 0,6 C -0,6 C
20.12.2012 09:26 1,3 C 95 % 1024,7 hPa 0,0 l/m 6,5 km/h (2 Bft) O-SO 112 0,6 C -0,7 C
20.12.2012 09:31 1,3 C 95 % 1024,7 hPa 0,0 l/m 4,0 km/h (1 Bft) SO 135 0,6 C 1,3 C
20.12.2012 09:36 1,3 C 95 % 1024,6 hPa 0,0 l/m 13,3 km/h (3 Bft) SO 135 0,6 C -2,5 C
20.12.2012 09:41 1,3 C 95 % 1024,7 hPa 0,0 l/m 11,2 km/h (2 Bft) O-SO 112 0,6 C -2,0 C
20.12.2012 09:46 1,3 C 95 % 1024,7 hPa 0,0 l/m 8,3 km/h (2 Bft) O-NO 67 0,6 C -1,3 C
20.12.2012 09:51 1,3 C 95 % 1024,6 hPa 0,0 l/m 5,4 km/h (1 Bft) SO 135 0,6 C -0,3 C
20.12.2012 09:56 1,3 C 95 % 1024,5 hPa 0,0 l/m 4,3 km/h (1 Bft) O-SO 112 0,6 C 1,3 C
20.12.2012 10:01 1,3 C 95 % 1024,4 hPa 0,0 l/m 13,3 km/h (3 Bft) O-NO 67 0,6 C -2,5 C
20.12.2012 10:06 1,3 C 95 % 1024,4 hPa 0,0 l/m 4,7 km/h (1 Bft) SO 135 0,6 C 0,0 C
20.12.2012 10:11 1,3 C 95 % 1024,7 hPa 0,0 l/m 8,3 km/h (2 Bft) SO 135 0,6 C -1,3 C
20.12.2012 10:16 1,3 C 95 % 1024,6 hPa 0,0 l/m 6,5 km/h (2 Bft) SO 135 0,6 C -0,7 C
20.12.2012 10:21 1,3 C 95 % 1024,7 hPa 0,0 l/m 7,6 km/h (2 Bft) O-NO 67 0,6 C -1,1 C
20.12.2012 10:26 1,3 C 95 % 1024,6 hPa 0,0 l/m 8,6 km/h (2 Bft) O-SO 112 0,6 C -1,4 C
20.12.2012 10:31 1,3 C 95 % 1024,4 hPa 0,0 l/m 10,8 km/h (2 Bft) O 90 0,6 C -2,0 C
20.12.2012 10:36 1,3 C 95 % 1024,7 hPa 0,0 l/m 13,0 km/h (3 Bft) O-SO 112 0,6 C -2,4 C
20.12.2012 10:41 1,4 C 95 % 1024,7 hPa 0,0 l/m 6,5 km/h (2 Bft) O-SO 112 0,7 C -0,6 C
20.12.2012 10:46 1,4 C 95 % 1024,7 hPa 0,0 l/m 2,9 km/h (1 Bft) O-SO 112 0,7 C 1,4 C
20.12.2012 10:51 1,4 C 95 % 1024,7 hPa 0,0 l/m 6,1 km/h (2 Bft) O-SO 112 0,7 C -0,5 C
20.12.2012 10:56 1,4 C 95 % 1024,5 hPa 0,0 l/m 10,1 km/h (2 Bft) S-SO 157 0,7 C -1,7 C
20.12.2012 11:01 1,4 C 95 % 1024,4 hPa 0,0 l/m 8,6 km/h (2 Bft) O-NO 67 0,7 C -1,3 C
20.12.2012 11:06 1,5 C 95 % 1024,4 hPa 0,0 l/m 8,3 km/h (2 Bft) O-SO 112 0,8 C -1,1 C
20.12.2012 11:11 1,5 C 95 % 1024,4 hPa 0,0 l/m 2,9 km/h (1 Bft) O-SO 112 0,8 C 1,5 C
20.12.2012 11:16 1,5 C 95 % 1024,3 hPa 0,0 l/m 8,6 km/h (2 Bft) S-SO 157 0,8 C -1,2 C
20.12.2012 11:21 1,5 C 95 % 1024,3 hPa 0,0 l/m 13,0 km/h (3 Bft) SO 135 0,8 C -2,2 C
20.12.2012 11:26 1,5 C 95 % 1024,2 hPa 0,0 l/m 7,6 km/h (2 Bft) O-SO 112 0,8 C -0,9 C
20.12.2012 11:31 1,5 C 95 % 1024,1 hPa 0,0 l/m 5,0 km/h (1 Bft) SO 135 0,8 C 0,1 C
20.12.2012 11:36 1,6 C 95 % 1024,1 hPa 0,0 l/m 3,2 km/h (1 Bft) O-SO 112 0,9 C 1,6 C
20.12.2012 11:41 1,6 C 95 % 1023,9 hPa 0,0 l/m 12,2 km/h (2 Bft) S-SO 157 0,9 C -1,9 C
20.12.2012 11:46 1,6 C 95 % 1023,9 hPa 0,0 l/m 2,9 km/h (1 Bft) S-SO 157 0,9 C 1,6 C
20.12.2012 11:51 1,6 C 95 % 1023,9 hPa 0,0 l/m 8,3 km/h (2 Bft) O 90 0,9 C -0,9 C
20.12.2012 11:56 1,6 C 95 % 1023,7 hPa 0,0 l/m 9,0 km/h (2 Bft) O-SO 112 0,9 C -1,1 C
20.12.2012 12:01 1,7 C 95 % 1023,6 hPa 0,0 l/m 4,7 km/h (1 Bft) O 90 1,0 C 0,5 C
20.12.2012 12:06 1,7 C 95 % 1023,4 hPa 0,0 l/m 13,3 km/h (3 Bft) O 90 1,0 C -2,0 C
20.12.2012 12:11 1,8 C 95 % 1023,3 hPa 0,0 l/m 6,1 km/h (2 Bft) O-SO 112 1,1 C 0,0 C
20.12.2012 12:16 1,8 C 95 % 1023,3 hPa 0,0 l/m 14,4 km/h (3 Bft) O-NO 67 1,1 C -2,1 C
20.12.2012 12:21 1,8 C 95 % 1023,2 hPa 0,0 l/m 13,3 km/h (3 Bft) O-SO 112 1,1 C -1,9 C
20.12.2012 12:26 1,7 C 95 % 1023,2 hPa 0,0 l/m 5,4 km/h (1 Bft) O 90 1,0 C 0,2 C
20.12.2012 12:31 1,8 C 95 % 1023,0 hPa 0,0 l/m 9,7 km/h (2 Bft) SO 135 1,1 C -1,1 C
20.12.2012 12:36 1,8 C 95 % 1022,9 hPa 0,0 l/m 5,0 km/h (1 Bft) O-SO 112 1,1 C 0,5 C
20.12.2012 12:41 1,8 C 95 % 1022,9 hPa 0,0 l/m 12,6 km/h (3 Bft) O-SO 112 1,1 C -1,7 C
20.12.2012 12:46 1,8 C 95 % 1022,9 hPa 0,0 l/m 11,5 km/h (2 Bft) SO 135 1,1 C -1,5 C
20.12.2012 12:51 1,8 C 95 % 1022,8 hPa 0,0 l/m 8,3 km/h (2 Bft) SO 135 1,1 C -0,7 C
20.12.2012 12:56 1,8 C 95 % 1022,8 hPa 0,0 l/m 5,8 km/h (2 Bft) SO 135 1,1 C 0,1 C
20.12.2012 13:01 1,8 C 94 % 1022,8 hPa 0,0 l/m 11,2 km/h (2 Bft) O-NO 67 0,9 C -1,4 C
20.12.2012 13:06 1,8 C 94 % 1022,8 hPa 0,0 l/m 6,5 km/h (2 Bft) S-SO 157 0,9 C -0,1 C
20.12.2012 13:11 1,8 C 94 % 1022,8 hPa 0,0 l/m 7,2 km/h (2 Bft) SO 135 0,9 C -0,4 C
20.12.2012 13:16 1,8 C 94 % 1022,8 hPa 0,0 l/m 12,2 km/h (2 Bft) O 90 0,9 C -1,7 C
20.12.2012 13:21 1,8 C 94 % 1022,9 hPa 0,0 l/m 4,0 km/h (1 Bft) O-SO 112 0,9 C 1,8 C
20.12.2012 13:26 1,8 C 94 % 1022,7 hPa 0,0 l/m 11,9 km/h (2 Bft) O-SO 112 0,9 C -1,6 C
20.12.2012 13:31 1,9 C 94 % 1022,6 hPa 0,0 l/m 14,0 km/h (3 Bft) SO 135 1,0 C -1,9 C
20.12.2012 13:36 1,9 C 94 % 1022,6 hPa 0,0 l/m 4,3 km/h (1 Bft) SO 135 1,0 C 1,9 C
20.12.2012 13:41 1,9 C 94 % 1022,4 hPa 0,0 l/m 7,2 km/h (2 Bft) O-NO 67 1,0 C -0,3 C
20.12.2012 13:46 1,9 C 94 % 1022,2 hPa 0,0 l/m 4,7 km/h (1 Bft) O-NO 67 1,0 C 0,7 C
20.12.2012 13:51 1,8 C 94 % 1022,2 hPa 0,0 l/m 7,2 km/h (2 Bft) O-SO 112 0,9 C -0,4 C
20.12.2012 13:56 1,8 C 94 % 1022,0 hPa 0,0 l/m 6,1 km/h (2 Bft) O-SO 112 0,9 C 0,0 C
20.12.2012 14:01 1,8 C 94 % 1022,1 hPa 0,0 l/m 7,9 km/h (2 Bft) O-SO 112 0,9 C -0,6 C
20.12.2012 14:06 1,9 C 94 % 1022,2 hPa 0,0 l/m 14,4 km/h (3 Bft) O-SO 112 1,0 C -2,0 C
20.12.2012 14:11 1,8 C 94 % 1022,1 hPa 0,0 l/m 9,4 km/h (2 Bft) O-SO 112 0,9 C -1,0 C
20.12.2012 14:16 1,8 C 93 % 1022,1 hPa 0,0 l/m 6,8 km/h (2 Bft) O-SO 112 0,8 C -0,2 C
20.12.2012 14:21 1,9 C 93 % 1021,9 hPa 0,0 l/m 12,2 km/h (2 Bft) O-SO 112 0,9 C -1,5 C
20.12.2012 14:26 1,9 C 93 % 1021,9 hPa 0,0 l/m 6,1 km/h (2 Bft) O-SO 112 0,9 C 0,1 C
20.12.2012 14:31 1,9 C 93 % 1021,9 hPa 0,0 l/m 14,8 km/h (3 Bft) O-SO 112 0,9 C -2,0 C
20.12.2012 14:36 1,8 C 93 % 1022,1 hPa 0,0 l/m 7,6 km/h (2 Bft) O-SO 112 0,8 C -0,5 C
20.12.2012 14:41 1,9 C 93 % 1022,0 hPa 0,0 l/m 14,4 km/h (3 Bft) O-SO 112 0,9 C -2,0 C
20.12.2012 14:46 1,8 C 93 % 1021,8 hPa 0,0 l/m 20,5 km/h (4 Bft) O 90 0,8 C -3,0 C
20.12.2012 14:51 1,8 C 93 % 1021,8 hPa 0,0 l/m 6,1 km/h (2 Bft) O-SO 112 0,8 C 0,0 C
20.12.2012 14:56 1,9 C 93 % 1021,7 hPa 0,0 l/m 13,0 km/h (3 Bft) SO 135 0,9 C -1,7 C
20.12.2012 15:01 1,8 C 93 % 1021,7 hPa 0,0 l/m 9,7 km/h (2 Bft) O-SO 112 0,8 C -1,1 C
20.12.2012 15:06 1,8 C 93 % 1021,8 hPa 0,0 l/m 12,2 km/h (2 Bft) O-SO 112 0,8 C -1,7 C
20.12.2012 15:11 1,8 C 93 % 1021,7 hPa 0,0 l/m 6,8 km/h (2 Bft) O-SO 112 0,8 C -0,2 C
20.12.2012 15:16 1,8 C 93 % 1021,7 hPa 0,0 l/m 13,3 km/h (3 Bft) O 90 0,8 C -1,9 C
20.12.2012 15:21 1,8 C 93 % 1021,7 hPa 0,0 l/m 7,2 km/h (2 Bft) O-SO 112 0,8 C -0,4 C
20.12.2012 15:26 1,8 C 93 % 1021,4 hPa 0,0 l/m 7,6 km/h (2 Bft) O 90 0,8 C -0,5 C
20.12.2012 15:31 1,8 C 93 % 1021,5 hPa 0,0 l/m 16,2 km/h (3 Bft) O 90 0,8 C -2,4 C
20.12.2012 15:36 1,8 C 93 % 1021,5 hPa 0,0 l/m 15,5 km/h (3 Bft) O 90 0,8 C -2,3 C
20.12.2012 15:41 1,8 C 93 % 1021,5 hPa 0,0 l/m 9,0 km/h (2 Bft) SO 135 0,8 C -0,9 C
20.12.2012 15:46 1,8 C 93 % 1021,5 hPa 0,0 l/m 14,0 km/h (3 Bft) O 90 0,8 C -2,0 C
20.12.2012 15:51 1,8 C 93 % 1021,6 hPa 0,0 l/m 7,2 km/h (2 Bft) O-SO 112 0,8 C -0,4 C
20.12.2012 15:56 1,8 C 93 % 1021,5 hPa 0,0 l/m 4,7 km/h (1 Bft) O-SO 112 0,8 C 0,6 C
20.12.2012 16:01 1,8 C 93 % 1021,5 hPa 0,0 l/m 11,2 km/h (2 Bft) O-SO 112 0,8 C -1,4 C
20.12.2012 16:06 1,8 C 93 % 1021,4 hPa 0,0 l/m 11,9 km/h (2 Bft) O 90 0,8 C -1,6 C
20.12.2012 16:11 1,8 C 93 % 1021,5 hPa 0,0 l/m 10,8 km/h (2 Bft) O-SO 112 0,8 C -1,4 C
20.12.2012 16:16 1,8 C 93 % 1021,4 hPa 0,0 l/m 9,4 km/h (2 Bft) O-SO 112 0,8 C -1,0 C
20.12.2012 16:21 1,6 C 93 % 1021,4 hPa 0,0 l/m 4,7 km/h (1 Bft) O-SO 112 0,6 C 0,4 C
20.12.2012 16:26 1,6 C 93 % 1021,1 hPa 0,0 l/m 7,9 km/h (2 Bft) O-SO 112 0,6 C -0,8 C
20.12.2012 16:31 1,6 C 93 % 1021,0 hPa 0,0 l/m 5,0 km/h (1 Bft) O-NO 67 0,6 C 0,2 C
20.12.2012 16:36 1,6 C 93 % 1021,0 hPa 0,0 l/m 16,9 km/h (3 Bft) SO 135 0,6 C -2,8 C
20.12.2012 16:41 1,6 C 93 % 1021,0 hPa 0,0 l/m 10,1 km/h (2 Bft) O-NO 67 0,6 C -1,4 C
20.12.2012 16:46 1,6 C 93 % 1021,2 hPa 0,0 l/m 19,8 km/h (3 Bft) SO 135 0,6 C -3,2 C
20.12.2012 16:51 1,6 C 93 % 1021,1 hPa 0,0 l/m 6,5 km/h (2 Bft) S-SO 157 0,6 C -0,4 C
20.12.2012 16:56 1,6 C 93 % 1021,2 hPa 0,0 l/m 13,7 km/h (3 Bft) O-NO 67 0,6 C -2,2 C
20.12.2012 17:01 1,6 C 93 % 1021,0 hPa 0,0 l/m 5,0 km/h (1 Bft) O 90 0,6 C 0,2 C
20.12.2012 17:06 1,6 C 93 % 1021,0 hPa 0,0 l/m 15,8 km/h (3 Bft) O 90 0,6 C -2,6 C
20.12.2012 17:11 1,6 C 92 % 1020,9 hPa 0,0 l/m 14,4 km/h (3 Bft) SO 135 0,4 C -2,3 C
20.12.2012 17:16 1,6 C 92 % 1020,8 hPa 0,0 l/m 20,5 km/h (4 Bft) O-SO 112 0,4 C -3,3 C
20.12.2012 17:21 1,6 C 92 % 1021,0 hPa 0,0 l/m 13,0 km/h (3 Bft) SO 135 0,4 C -2,1 C
20.12.2012 17:26 1,6 C 92 % 1020,8 hPa 0,0 l/m 13,3 km/h (3 Bft) SO 135 0,4 C -2,1 C
20.12.2012 17:31 1,6 C 92 % 1020,8 hPa 0,0 l/m 12,6 km/h (3 Bft) O-SO 112 0,4 C -2,0 C
20.12.2012 17:36 1,6 C 92 % 1020,7 hPa 0,0 l/m 6,8 km/h (2 Bft) SO 135 0,4 C -0,5 C
20.12.2012 17:41 1,6 C 92 % 1020,7 hPa 0,0 l/m 21,6 km/h (4 Bft) O-SO 112 0,4 C -3,4 C
20.12.2012 17:46 1,6 C 92 % 1020,7 hPa 0,0 l/m 10,1 km/h (2 Bft) SO 135 0,4 C -1,4 C
20.12.2012 17:51 1,6 C 92 % 1020,7 hPa 0,0 l/m 10,4 km/h (2 Bft) O-SO 112 0,4 C -1,5 C
20.12.2012 17:56 1,6 C 91 % 1020,7 hPa 0,0 l/m 11,5 km/h (2 Bft) SO 135 0,3 C -1,8 C
20.12.2012 18:01 1,6 C 91 % 1020,6 hPa 0,0 l/m 19,4 km/h (3 Bft) O-SO 112 0,3 C -3,1 C
20.12.2012 18:06 1,6 C 91 % 1020,5 hPa 0,0 l/m 8,3 km/h (2 Bft) SO 135 0,3 C -0,9 C
20.12.2012 18:11 1,6 C 91 % 1020,5 hPa 0,0 l/m 11,9 km/h (2 Bft) O 90 0,3 C -1,8 C
20.12.2012 18:16 1,6 C 91 % 1020,6 hPa 0,0 l/m 7,9 km/h (2 Bft) O-NO 67 0,3 C -0,8 C
20.12.2012 18:21 1,6 C 91 % 1020,5 hPa 0,0 l/m 17,3 km/h (3 Bft) O-SO 112 0,3 C -2,8 C
20.12.2012 18:26 1,5 C 91 % 1020,4 hPa 0,0 l/m 4,0 km/h (1 Bft) SO 135 0,2 C 1,5 C
20.12.2012 18:31 1,5 C 91 % 1020,5 hPa 0,0 l/m 11,9 km/h (2 Bft) SO 135 0,2 C -2,0 C
20.12.2012 18:36 1,5 C 91 % 1020,3 hPa 0,0 l/m 8,3 km/h (2 Bft) O 90 0,2 C -1,1 C
20.12.2012 18:41 1,4 C 91 % 1020,2 hPa 0,0 l/m 4,3 km/h (1 Bft) O 90 0,1 C 1,4 C
20.12.2012 18:46 1,4 C 91 % 1020,2 hPa 0,0 l/m 15,1 km/h (3 Bft) O-SO 112 0,1 C -2,7 C
20.12.2012 18:51 1,4 C 91 % 1020,3 hPa 0,0 l/m 17,3 km/h (3 Bft) O-SO 112 0,1 C -3,1 C
20.12.2012 18:56 1,3 C 91 % 1020,3 hPa 0,0 l/m 21,2 km/h (4 Bft) SO 135 -0,0 C -3,8 C
20.12.2012 19:01 1,3 C 91 % 1020,3 hPa 0,0 l/m 7,2 km/h (2 Bft) O 90 -0,0 C -1,0 C
20.12.2012 19:06 1,3 C 91 % 1020,0 hPa 0,0 l/m 9,4 km/h (2 Bft) SO 135 -0,0 C -1,6 C
20.12.2012 19:11 1,4 C 91 % 1019,9 hPa 0,0 l/m 11,9 km/h (2 Bft) O-NO 67 0,1 C -2,1 C
20.12.2012 19:16 1,4 C 91 % 1020,0 hPa 0,0 l/m 13,0 km/h (3 Bft) O-SO 112 0,1 C -2,3 C
20.12.2012 19:21 1,4 C 91 % 1019,8 hPa 0,0 l/m 14,8 km/h (3 Bft) SO 135 0,1 C -2,7 C
20.12.2012 19:26 1,4 C 91 % 1019,8 hPa 0,0 l/m 13,3 km/h (3 Bft) O-SO 112 0,1 C -2,4 C
20.12.2012 19:31 1,3 C 91 % 1019,7 hPa 0,0 l/m 8,6 km/h (2 Bft) S-SO 157 -0,0 C -1,4 C
20.12.2012 19:36 1,3 C 91 % 1019,6 hPa 0,0 l/m 14,4 km/h (3 Bft) O 90 -0,0 C -2,7 C
20.12.2012 19:41 1,3 C 91 % 1019,7 hPa 0,0 l/m 10,1 km/h (2 Bft) SO 135 -0,0 C -1,8 C
20.12.2012 19:46 1,3 C 91 % 1019,7 hPa 0,0 l/m 11,5 km/h (2 Bft) O-NO 67 -0,0 C -2,1 C
20.12.2012 19:51 1,3 C 91 % 1019,7 hPa 0,0 l/m 5,0 km/h (1 Bft) O-SO 112 -0,0 C -0,1 C
20.12.2012 19:56 1,3 C 91 % 1019,6 hPa 0,0 l/m 8,3 km/h (2 Bft) S-SO 157 -0,0 C -1,3 C
20.12.2012 20:01 1,3 C 91 % 1019,6 hPa 0,0 l/m 8,6 km/h (2 Bft) O 90 -0,0 C -1,4 C
20.12.2012 20:06 1,3 C 91 % 1019,6 hPa 0,0 l/m 13,0 km/h (3 Bft) SO 135 -0,0 C -2,4 C
20.12.2012 20:11 1,3 C 91 % 1019,5 hPa 0,0 l/m 12,2 km/h (2 Bft) O-SO 112 -0,0 C -2,3 C
20.12.2012 20:16 1,3 C 91 % 1019,4 hPa 0,0 l/m 7,6 km/h (2 Bft) SO 135 -0,0 C -1,1 C
20.12.2012 20:21 1,3 C 90 % 1019,4 hPa 0,0 l/m 7,2 km/h (2 Bft) O 90 -0,2 C -1,0 C
20.12.2012 20:26 1,3 C 90 % 1019,2 hPa 0,0 l/m 5,4 km/h (1 Bft) O-SO 112 -0,2 C -0,3 C
20.12.2012 20:31 1,2 C 90 % 1019,2 hPa 0,0 l/m 17,3 km/h (3 Bft) S 180 -0,3 C -3,3 C
20.12.2012 20:36 1,2 C 90 % 1019,3 hPa 0,0 l/m 9,7 km/h (2 Bft) SO 135 -0,3 C -1,8 C
20.12.2012 20:41 1,2 C 89 % 1019,4 hPa 0,0 l/m 12,2 km/h (2 Bft) O-SO 112 -0,4 C -2,4 C
20.12.2012 20:46 1,2 C 89 % 1019,3 hPa 0,0 l/m 5,8 km/h (2 Bft) NO 45 -0,4 C -0,6 C
20.12.2012 20:51 1,1 C 89 % 1019,1 hPa 0,0 l/m 12,2 km/h (2 Bft) SO 135 -0,5 C -2,5 C
20.12.2012 20:56 1,1 C 89 % 1019,0 hPa 0,0 l/m 13,3 km/h (3 Bft) O-SO 112 -0,5 C -2,7 C
20.12.2012 21:01 1,1 C 89 % 1019,2 hPa 0,0 l/m 7,2 km/h (2 Bft) SO 135 -0,5 C -1,2 C
20.12.2012 21:06 1,1 C 89 % 1019,2 hPa 0,0 l/m 7,6 km/h (2 Bft) SO 135 -0,5 C -1,3 C
20.12.2012 21:11 1,0 C 90 % 1019,2 hPa 0,0 l/m 9,0 km/h (2 Bft) S-SO 157 -0,5 C -1,9 C
20.12.2012 21:16 1,0 C 90 % 1019,0 hPa 0,0 l/m 9,7 km/h (2 Bft) SO 135 -0,5 C -2,0 C
20.12.2012 21:21 0,9 C 90 % 1019,0 hPa 0,0 l/m 10,8 km/h (2 Bft) SO 135 -0,6 C -2,4 C
20.12.2012 21:26 0,9 C 90 % 1019,0 hPa 0,0 l/m 8,6 km/h (2 Bft) SO 135 -0,6 C -1,9 C
20.12.2012 21:31 0,9 C 90 % 1019,0 hPa 0,0 l/m 6,1 km/h (2 Bft) S-SO 157 -0,6 C -1,0 C
20.12.2012 21:36 0,9 C 90 % 1018,9 hPa 0,0 l/m 13,0 km/h (3 Bft) SO 135 -0,6 C -2,9 C
20.12.2012 21:41 0,9 C 91 % 1018,9 hPa 0,0 l/m 8,6 km/h (2 Bft) SO 135 -0,4 C -1,9 C
20.12.2012 21:46 0,9 C 91 % 1018,9 hPa 0,0 l/m 6,8 km/h (2 Bft) SO 135 -0,4 C -1,3 C
20.12.2012 21:51 0,9 C 91 % 1018,7 hPa 0,0 l/m 9,4 km/h (2 Bft) O-SO 112 -0,4 C -2,1 C
20.12.2012 21:56 0,9 C 91 % 1018,9 hPa 0,0 l/m 10,1 km/h (2 Bft) O 90 -0,4 C -2,3 C
20.12.2012 22:01 0,9 C 91 % 1018,7 hPa 0,0 l/m 15,8 km/h (3 Bft) O-SO 112 -0,4 C -3,4 C
20.12.2012 22:06 0,9 C 91 % 1018,6 hPa 0,0 l/m 7,2 km/h (2 Bft) SO 135 -0,4 C -1,4 C
20.12.2012 22:11 0,9 C 91 % 1018,6 hPa 0,0 l/m 5,8 km/h (2 Bft) SO 135 -0,4 C -0,9 C
20.12.2012 22:16 0,9 C 90 % 1018,6 hPa 0,0 l/m 9,0 km/h (2 Bft) SO 135 -0,6 C -2,0 C
20.12.2012 22:21 0,9 C 90 % 1018,6 hPa 0,0 l/m 2,5 km/h (1 Bft) S-SO 157 -0,6 C 0,9 C
20.12.2012 22:26 0,9 C 90 % 1018,5 hPa 0,0 l/m 19,1 km/h (3 Bft) O-SO 112 -0,6 C -4,0 C
20.12.2012 22:31 0,9 C 89 % 1018,5 hPa 0,0 l/m 8,6 km/h (2 Bft) S-SO 157 -0,7 C -1,9 C
20.12.2012 22:36 0,9 C 89 % 1018,6 hPa 0,0 l/m 5,4 km/h (1 Bft) O-SO 112 -0,7 C -0,7 C
20.12.2012 22:41 0,9 C 89 % 1018,4 hPa 0,0 l/m 6,8 km/h (2 Bft) SO 135 -0,7 C -1,3 C
20.12.2012 22:46 0,9 C 89 % 1018,4 hPa 0,0 l/m 9,7 km/h (2 Bft) SO 135 -0,7 C -2,2 C
20.12.2012 22:51 0,9 C 89 % 1018,3 hPa 0,0 l/m 9,0 km/h (2 Bft) SO 135 -0,7 C -2,0 C
20.12.2012 22:56 0,9 C 89 % 1018,4 hPa 0,0 l/m 11,2 km/h (2 Bft) S-SO 157 -0,7 C -2,5 C
20.12.2012 23:01 0,9 C 89 % 1018,2 hPa 0,0 l/m 6,8 km/h (2 Bft) SO 135 -0,7 C -1,3 C
20.12.2012 23:06 0,9 C 89 % 1018,2 hPa 0,0 l/m 7,6 km/h (2 Bft) SO 135 -0,7 C -1,6 C
20.12.2012 23:11 0,8 C 89 % 1018,2 hPa 0,0 l/m 14,0 km/h (3 Bft) O-SO 112 -0,8 C -3,2 C
20.12.2012 23:16 0,8 C 90 % 1018,1 hPa 0,0 l/m 7,2 km/h (2 Bft) SO 135 -0,6 C -1,5 C
20.12.2012 23:21 0,7 C 90 % 1018,3 hPa 0,0 l/m 14,4 km/h (3 Bft) O 90 -0,7 C -3,4 C
20.12.2012 23:26 0,6 C 90 % 1018,1 hPa 0,0 l/m 9,0 km/h (2 Bft) O-NO 67 -0,8 C -2,3 C
20.12.2012 23:31 0,6 C 90 % 1018,2 hPa 0,0 l/m 7,9 km/h (2 Bft) O 90 -0,8 C -2,0 C
20.12.2012 23:36 0,5 C 90 % 1018,3 hPa 0,0 l/m 10,1 km/h (2 Bft) O 90 -0,9 C -2,7 C
20.12.2012 23:41 0,5 C 91 % 1018,2 hPa 0,0 l/m 11,5 km/h (2 Bft) O-SO 112 -0,8 C -3,1 C
20.12.2012 23:46 0,5 C 91 % 1018,3 hPa 0,0 l/m 18,4 km/h (3 Bft) O-SO 112 -0,8 C -4,4 C
20.12.2012 23:51 0,4 C 91 % 1018,0 hPa 0,0 l/m 16,9 km/h (3 Bft) O-SO 112 -0,9 C -4,3 C
20.12.2012 23:56 0,4 C 90 % 1018,1 hPa 0,0 l/m 14,8 km/h (3 Bft) O-SO 112 -1,0 C -3,9 C
_ Min-Zeit 23:51 20:41 23:51 - 00:01 - - 23:56 23:46
Minimum _ 0,4 C 89 % 1018,0 hPa - 0,0 km/h (0 Bft) - - -1,0 C -4,4 C
_ Max-Zeit 13:31 00:01 01:06 00:01 17:41 - - 12:11 13:36
Maximum _ 1,9 C 95 % 1027,6 hPa 0,0 l/m 21,6 km/h
O-SO (4 Bft)
- - 1,1 C 1,9 C
Durchschnitt _ 1,4 C 93 % 1023,2 hPa #0,0 l/m 8,6 km/h (2 Bft) O-SO - 0,4 C -1,0 C
(c) by David Heller